Regional Weather Roundup
Issued by NWS Kansas City/Pleasant Hill, MO

Home | Current Version | Previous Version | Graphics & Text | Print | Product List | Glossary Off
Versions: 1 2 3 4 5 6 7 8 9 10 11 12 13 14 15 16 17 18 19 20 21 22 23 24 25 26 27 28 29 30 31 32 33 34 35 36 37 38 39 40 41 42 43 44 45 46 47 48 49 50

000
ASUS43 KEAX 061310
RWREAX

WEATHER ROUNDUP FOR EASTERN KANSAS AND NORTHWEST MISSOURI
NATIONAL WEATHER SERVICE KANSAS CITY/PLEASANT HILL MO
700 AM CST FRI MAR 06 2015

KSZ040-057-103>105-MOZ028-029-037-043-061400-
...KANSAS CITY METROPOLITAN AREA...

CITY           SKY/WX    TMP DP  RH WIND       PRES   REMARKS
K.C. INTL      PTCLDY    29  18  63 SW17      30.28F WCI  17
K.C. DOWNTOWN  CLEAR     33  17  51 SW20G26   30.30F WCI  21
LEES SUMMIT    CLEAR     26  17  68 S13       30.31F WCI  15
OLATHE - IXD   CLEAR     29  18  63 S22G29    30.31F WCI  15
OLATHE - OJC   CLEAR     27  18  69 SW14G21   30.30F WCI  16
LAWRENCE       CLEAR     30  18  60 SW8       30.32S WCI  22

$$

MOZ001>008-011>017-020>025-030>033-038>040-044>046-053-054-061400-
...NORTHERN AND CENTRAL MISSOURI...

CITY           SKY/WX    TMP DP  RH WIND       PRES   REMARKS
ST. JOSEPH     FAIR      26  18  71 S7        30.28S WCI  18
MOSBY          SUNNY     27  18  69 SE6       30.30F WCI  20
WARRENSBURG    CLEAR     27  18  69 S12       30.36F WCI  16
WHITEMAN AFB   CLEAR     26  16  68 SW17G25   30.35F WCI  12
CLINTON        CLEAR     28  19  69 S9        30.40S WCI  20
SEDALIA        CLEAR     27  14  58 SW16G25   30.37F WCI  15
WARSAW         NOT AVBL
MARSHALL       PTCLDY    25  16  68 S9        30.38F WCI  15
CHILLICOTHE      N/A     26  15  63 S12       30.30F WCI  16
MOBERLY        PTCLDY    21   9  58 S12       30.36F WCI   9
KIRKSVILLE     CLOUDY    21  12  68 S13       30.31F WCI   9

$$

MOZ041-047>049-056>058-063>065-088>090-097-061400-
...EASTERN AND SOUTHERN MISSOURI...

CITY           SKY/WX    TMP DP  RH WIND       PRES   REMARKS
ST. LOUIS INTL CLEAR     17   7  64 S9        30.52S WCI   6
SPIRIT OF STL  CLEAR     16   8  71 CALM      30.51S
COLUMBIA       CLEAR     20  10  65 S13       30.40F WCI   7
JEFFERSON CITY CLEAR     19   9  65 E8        30.45F WCI   9
MEXICO         PTCLDY    19  14  79 S12       30.40F WCI   7
HANNIBAL       PTCLDY    16   7  67 S9        30.40F WCI   4
ROLLA          CLEAR     20   8  60 S13       30.43F WCI   7
LEBANON        CLEAR     21  10  63 S9        30.43S WCI  11
OSAGE BEACH    CLEAR     19   9  63 S7        30.43F WCI  10
SPRINGFIELD    CLEAR     21  13  71 S13       30.43F WCI   9
BRANSON        CLEAR     16  12  86 CALM      30.49F
NEVADA         CLEAR     27  19  74 S14G20    30.41F WCI  15
JOPLIN         CLEAR     29  17  61 SW15      30.45F WCI  18
WEST PLAINS    PTCLDY    16   6  65 S7        30.50F WCI   6

$$

IAZ060-094-KSZ022-034>040-054-083-096-NEZ052-066-093-061400-
...KANSAS...SOUTHEAST NEBRASKA AND IOWA...

CITY           SKY/WX    TMP DP  RH WIND       PRES   REMARKS
TOPEKA         CLEAR     30  19  63 SW7       30.31S WCI  23
MANHATTAN      CLEAR     27  22  81 SW12      30.30F WCI  17
EMPORIA        CLEAR     29  20  69 SW10      30.33S WCI  20
CHANUTE        CLEAR     27  19  72 S13       30.40F WCI  16
WICHITA        CLEAR     23  19  85 S9        30.36F WCI  13
OMAHA          PTCLDY    20  14  77 S9        30.20S WCI   9
LINCOLN        CLEAR     19  12  74 S6        30.22R WCI  11
FALLS CITY     CLEAR     28  19  69 SW5       30.24S WCI  23
LAMONI         CLEAR     21  12  68 S10       30.22F WCI  10
DES MOINES     PTCLDY    22  12  65 S12       30.20F WCI  10

$$



USA.gov is the U.S. government's official web portal to all federal, state and local government web resources and services.